#timestamp,LO_Frequency,Hit,Temp,Hum 
1480042815.2,286047126.5,N,0.0,0.0
1480042835.1,286047128.6,N,0.0,0.0
1480042836.0,286047128.6,N,0.0,0.0
1480042855.8,286047128.5,N,0.0,0.0
1480042875.6,286047127.9,N,0.0,0.0
1480042895.5,286047128.9,N,0.0,0.0
1480042915.3,286047128.3,N,0.0,0.0
1480042935.2,286047128.1,N,0.0,0.0
1480042955.9,286047130.8,N,0.0,0.0
1480042975.7,286047128.6,N,0.0,0.0
1480042995.6,286047127.9,N,0.0,0.0
1480043015.4,286047130.8,N,0.0,0.0
1480043035.2,286047130.4,N,0.0,0.0
1480043055.1,286047127.7,N,0.0,0.0
1480043056.0,286047127.7,N,0.0,0.0
1480043075.8,286047128.6,N,0.0,0.0
1480043095.7,286047128.9,N,0.0,0.0
1480043115.5,286047128.6,N,0.0,0.0
1480043135.3,286047128.4,N,0.0,0.0
1480043155.2,286047128.0,N,0.0,0.0
1480043175.0,286047128.0,N,0.0,0.0
1480043175.9,286047128.0,N,0.0,0.0
1480043195.8,286047127.8,N,0.0,0.0
1480043215.6,286047130.3,N,0.0,0.0
1480043235.4,286047130.8,N,0.0,0.0
1480043255.3,286047128.5,N,0.0,0.0
1480043275.1,286047128.8,N,0.0,0.0
1480043295.8,286047125.0,N,0.0,0.0
1480043315.7,286047125.9,N,0.0,0.0
1480043335.5,286047123.7,N,0.0,0.0
1480043355.4,286047124.3,N,0.0,0.0
1480043375.2,286047121.4,N,0.0,0.0
1480043395.0,286047121.8,N,0.0,0.0
1480043395.9,286047121.8,N,0.0,0.0
1480043415.8,286047122.1,N,0.0,0.0
1480043435.6,286047119.7,N,0.0,0.0
1480043455.5,286047116.5,N,0.0,0.0
1480043475.3,286047116.3,N,0.0,0.0
1480043495.1,286047113.6,N,0.0,0.0
1480043515.9,286047110.7,N,0.0,0.0
1480043535.7,286047108.0,N,0.0,0.0
1480043555.5,286047104.0,N,0.0,0.0
1480043575.4,286047102.4,N,0.0,0.0
1480043595.2,286047103.2,N,0.0,0.0
1480043615.1,286047101.1,N,0.0,0.0
1480043616.0,286047101.1,N,0.0,0.0
1480043635.8,286047101.6,N,0.0,0.0
1480043655.6,286047103.4,N,0.0,0.0
1480043675.5,286047102.2,N,0.0,0.0
1480043695.3,286047103.5,N,0.0,0.0
1480043715.2,286047100.6,N,0.0,0.0
1480043735.9,286047101.4,N,0.0,0.0
1480043755.7,286047100.6,N,0.0,0.0
1480043775.6,286047101.5,N,0.0,0.0
1480043795.4,286047103.4,N,0.0,0.0
1480043815.2,286047103.4,N,0.0,0.0
1480043835.1,286047103.3,N,0.0,0.0
1480043836.0,286047103.3,N,0.0,0.0
1480043855.8,286047101.9,N,0.0,0.0
1480043875.7,286047101.8,N,0.0,0.0
1480043895.5,286047097.3,N,0.0,0.0
1480043915.3,286047095.9,N,0.0,0.0
1480043935.2,286047096.9,N,0.0,0.0
1480043955.0,286047097.0,N,0.0,0.0
1480043955.9,286047097.0,N,0.0,0.0
1480043975.8,286047096.5,N,0.0,0.0
1480043995.6,286047094.4,N,0.0,0.0
1480044015.4,286047094.4,N,0.0,0.0
1480044035.3,286047095.4,N,0.0,0.0
1480044055.1,286047093.8,N,0.0,0.0
1480044075.9,286047093.5,N,0.0,0.0
1480044095.7,286047091.7,N,0.0,0.0
1480044115.5,286047091.8,N,0.0,0.0
1480044135.4,286047089.3,N,0.0,0.0
1480044155.2,286047090.6,N,0.0,0.0
1480044175.0,286047090.6,N,0.0,0.0
1480044175.9,286047090.6,N,0.0,0.0
1480044195.8,286047089.7,N,0.0,0.0
1480044215.6,286047088.0,N,0.0,0.0
1480044235.5,286047088.0,N,0.0,0.0
1480044255.3,286047086.1,N,0.0,0.0
1480044275.1,286047088.0,N,0.0,0.0
1480044295.9,286047088.1,N,0.0,0.0
1480044315.7,286047087.3,N,0.0,0.0
1480044335.5,286047087.2,N,0.0,0.0
1480044355.4,286047085.5,N,0.0,0.0
1480044375.2,286047084.4,N,0.0,0.0
1480044395.1,286047080.4,N,0.0,0.0
1480044396.0,286047080.4,N,0.0,0.0
1480044415.8,286047079.0,N,0.0,0.0
1480044435.6,286047079.5,N,0.0,0.0
1480044455.5,286047076.5,N,0.0,0.0
1480044475.3,286047077.3,N,0.0,0.0
1480044495.2,286047075.6,N,0.0,0.0
1480044515.9,286047076.3,N,0.0,0.0
1480044535.7,286047076.2,N,0.0,0.0
1480044555.6,286047076.0,N,0.0,0.0
1480044575.4,286047076.3,N,0.0,0.0
1480044595.2,286047076.3,N,0.0,0.0
1480044615.1,286047073.7,N,0.0,0.0
1480044616.0,286047073.7,N,0.0,0.0
1480044635.8,286047074.3,N,0.0,0.0
1480044655.7,286047072.4,N,0.0,0.0
1480044675.5,286047070.3,N,0.0,0.0
1480044695.3,286047068.8,N,0.0,0.0
1480044715.2,286047067.4,N,0.0,0.0
1480044735.0,286047068.2,N,0.0,0.0
1480044735.9,286047068.2,N,0.0,0.0
1480044755.8,286047065.5,N,0.0,0.0
1480044775.6,286047064.1,N,0.0,0.0
1480044795.4,286047064.5,N,0.0,0.0
1480044815.3,286047065.1,N,0.0,0.0
1480044835.1,286047063.0,N,0.0,0.0
1480044855.8,286047063.2,N,0.0,0.0
1480044875.7,286047061.0,N,0.0,0.0
1480044895.5,286047061.5,N,0.0,0.0
1480044915.4,286047061.9,N,0.0,0.0
1480044935.2,286047059.5,N,0.0,0.0
1480044955.0,286047059.9,N,0.0,0.0
1480044955.9,286047059.9,N,0.0,0.0
1480044975.8,286047058.5,N,0.0,0.0
1480044995.6,286047055.8,N,0.0,0.0
1480045015.5,286047056.2,N,0.0,0.0
1480045035.3,286047056.0,N,0.0,0.0
1480045055.1,286047056.9,N,0.0,0.0
1480045075.9,286047056.8,N,0.0,0.0
1480045095.7,286047055.3,N,0.0,0.0
1480045115.6,286047054.7,N,0.0,0.0
1480045135.4,286047055.4,N,0.0,0.0
1480045155.2,286047053.1,N,0.0,0.0
1480045175.1,286047053.7,N,0.0,0.0
1480045176.0,286047053.7,N,0.0,0.0
1480045195.8,286047051.0,N,0.0,0.0
1480045215.6,286047051.5,N,0.0,0.0
1480045235.5,286047051.2,N,0.0,0.0
1480045255.3,286047051.5,N,0.0,0.0
1480045275.2,286047051.0,N,0.0,0.0
1480045295.9,286047051.2,N,0.0,0.0
1480045315.7,286047052.3,N,0.0,0.0
1480045335.6,286047051.9,N,0.0,0.0
1480045355.4,286047051.9,N,0.0,0.0
1480045375.2,286047051.9,N,0.0,0.0
1480045395.1,286047052.2,N,0.0,0.0
1480045396.0,286047052.2,N,0.0,0.0
1480045415.8,286047049.4,N,0.0,0.0
1480045435.7,286047050.1,N,0.0,0.0
1480045455.5,286047050.7,N,0.0,0.0
1480045475.3,286047048.2,N,0.0,0.0
1480045495.2,286047049.1,N,0.0,0.0
1480045515.0,286047049.1,N,0.0,0.0
1480045515.9,286047049.1,N,0.0,0.0
1480045535.7,286047046.5,N,0.0,0.0
1480045555.6,286047046.5,N,0.0,0.0
1480045575.4,286047046.4,N,0.0,0.0
1480045595.3,286047047.0,N,0.0,0.0
1480045615.1,286047045.0,N,0.0,0.0
1480045616.0,286047045.0,N,0.0,0.0
1480045635.8,286047045.8,N,0.0,0.0
1480045655.7,286047045.7,N,0.0,0.0
1480045675.5,286047045.4,N,0.0,0.0
1480045695.4,286047045.6,N,0.0,0.0
1480045715.2,286047044.1,N,0.0,0.0
1480045735.0,286047043.8,N,0.0,0.0
1480045735.9,286047043.8,N,0.0,0.0
1480045755.8,286047043.9,N,0.0,0.0
1480045775.6,286047044.4,N,0.0,0.0
1480045795.4,286047044.3,N,0.0,0.0
1480045815.3,286047042.5,N,0.0,0.0
1480045835.1,286047042.7,N,0.0,0.0
1480045855.9,286047040.3,N,0.0,0.0
1480045875.7,286047038.6,N,0.0,0.0
1480045895.5,286047041.1,N,0.0,0.0
1480045915.4,286047038.5,N,0.0,0.0
1480045935.2,286047038.3,N,0.0,0.0
1480045955.0,286047038.8,N,0.0,0.0
1480045956.0,286047038.8,N,0.0,0.0
1480045975.8,286047036.5,N,0.0,0.0
1480045995.6,286047037.2,N,0.0,0.0
1480046015.5,286047036.8,N,0.0,0.0
1480046035.3,286047037.3,N,0.0,0.0
1480046055.1,286047038.0,N,0.0,0.0
1480046075.9,286047037.3,N,0.0,0.0
1480046095.7,286047035.4,N,0.0,0.0
1480046115.6,286047036.0,N,0.0,0.0
1480046135.4,286047033.4,N,0.0,0.0
1480046155.2,286047034.5,N,0.0,0.0
1480046175.1,286047032.1,N,0.0,0.0
1480046176.0,286047032.1,N,0.0,0.0
1480046195.8,286047032.2,N,0.0,0.0
1480046215.7,286047032.1,N,0.0,0.0
1480046235.5,286047032.9,N,0.0,0.0
1480046255.3,286047030.6,N,0.0,0.0
1480046275.2,286047030.4,N,0.0,0.0
1480046295.0,286047030.8,N,0.0,0.0
1480046295.9,286047030.8,N,0.0,0.0
1480046315.8,286047031.4,N,0.0,0.0
1480046335.6,286047028.6,N,0.0,0.0
1480046355.4,286047029.3,N,0.0,0.0
1480046375.3,286047029.7,N,0.0,0.0
1480046395.1,286047027.3,N,0.0,0.0
